Location: Unspecified
(51.5147°N, 7.4673°E)
Time: 07:19:38
(UTC+01:00)

A-11 Canister half - Pass Details

Date: 24 February 2026
Orbit: 1512 x 1687 km, 47.2° (Epoch: 8 March)

Event Time Altitude Azimuth Distance (km) Brightness Sun altitude
Rises 17:09:10 0° 169° (S) 4,917 11.8 6.8°
Reaches altitude 10° 17:15:11 10° 143° (SE) 3,946 11.0 6.0°
Maximum altitude 17:18:35 12° 122° (ESE) 3,776 10.7 5.5°
Drops below altitude 10° 17:21:58 10° 102° (ESE) 3,948 10.7 5.0°
Sets 17:27:56 0° 76° (ENE) 4,925 11.0 4.1°
